Flight Track Log - Related Links

Times and Time Zones

All times are in EDT time to prevent confusion due to time zone crossing. See the N770FE flight status page for this flight to view local times or setup timezone preferences in your user account.

Time Position Orientation Groundspeed Altitude Reporting Facility
EDT Latitude Longitude Course Direction KTS MPH feet Rate Location/Type
08:44PM 41.1530 -96.7520 76° East 177 204  Level FlightAware
08:45PM 41.1590 -96.7190 76° East 178 205 202 Level FlightAware
08:46PM 41.1660 -96.6800 77° East 178 205 211 Level FlightAware
08:46PM 41.1710 -96.6540 76° East 178 205 222 Level FlightAware
08:46PM 41.1740 -96.6390 75° East 177 204 232 Level FlightAware
08:47PM 41.1790 -96.6060 79° East 179 206 236 Level FlightAware
08:47PM 41.1840 -96.5760 78° East 180 207 249 Level FlightAware
08:48PM 41.1900 -96.5460 75° East 181 208 262 Level FlightAware
08:48PM 41.1950 -96.5180 77° East 184 212 276 Level FlightAware
08:49PM 41.2000 -96.4850 79° East 197 227 291 Level FlightAware
08:49PM 41.2060 -96.4490 77° East 202 232 308 Level FlightAware
08:49PM 41.2090 -96.4350 74° East 202 232 330 Level FlightAware
08:50PM 41.2150 -96.4010 77° East 200 230 338 Level FlightAware
08:50PM 41.2210 -96.3630 78° East 199 229 362 Level FlightAware
08:51PM 41.2270 -96.3310 76° East 198 228 393 Level FlightAware
08:51PM 41.2300 -96.3160 75° East 196 226 426 Level FlightAware
08:51PM 41.2350 -96.2850 78° East 194 223 442 Level FlightAware
08:52PM 41.2380 -96.2660 78° East 195 224 482 Level FlightAware
08:52PM 41.2430 -96.2390 76° East 196 226 507 Level FlightAware
08:52PM 41.2500 -96.2030 75° East 195 224 554 Level FlightAware
08:53PM 41.2550 -96.1690 79° East 192 221 629 Level FlightAware
08:53PM 41.2610 -96.1370 76° East 189 217 720 Level FlightAware
08:54PM 41.2660 -96.1120 75° East 188 216 837 Level FlightAware
08:54PM 41.2740 -96.0740 74° East 187 215 960 Level FlightAware
08:55PM 41.2800 -96.0450 75° East 185 213 1,252 Level FlightAware
08:55PM 41.2850 -96.0280 69° East 187 215 1,618 Level FlightAware
08:56PM 41.3020 -95.9770 66° East 191 220 1,946 Level FlightAware
08:56PM 41.3100 -95.9520 67° East 178 205 2,400 2,556 Climbing FlightAware
08:57PM 41.3190 -95.9270 64° Northeast 177 204 2,300 69 Descending FlightAware
08:59PM 41.3011 -95.9691 241° Southwest  Level FlightAware Approximate
09:00PM 41.2908 -95.9933 240° Southwest  Level FlightAware Approximate
09:01PM 41.2805 -96.0176 240° Southwest  Level FlightAware Approximate
09:02PM 41.2701 -96.0418 240° Southwest  Level FlightAware Approximate
09:03PM 41.2629 -96.0725 258° West  Level FlightAware Approximate
09:04PM 41.2584 -96.0997 258° West  Level FlightAware Approximate
09:05PM 41.2539 -96.1269 258° West  Level FlightAware Approximate
09:06PM 41.2494 -96.1541 258° West  Level FlightAware Approximate
09:07PM 41.2448 -96.1813 257° West  Level FlightAware Approximate
09:08PM 41.2403 -96.2085 257° West  Level FlightAware Approximate
09:09PM 41.2357 -96.2357 257° West  Level FlightAware Approximate
09:10PM 41.2333 -96.2632 270° West  Level FlightAware Approximate
09:11PM 41.2319 -96.2908 256° West  Level FlightAware Approximate
09:12PM 41.2269 -96.3179 256° West  Level FlightAware Approximate
09:13PM 41.2219 -96.3449 256° West  Level FlightAware Approximate
09:14PM 41.2168 -96.3719 256° West  Level FlightAware Approximate
09:15PM 41.2117 -96.3989 256° West  Level FlightAware Approximate
09:16PM 41.2067 -96.4260 256° West  Level FlightAware Approximate
09:17PM 41.2016 -96.4530 256° West  Level FlightAware Approximate
09:18PM 41.1965 -96.4800 256° West  Level FlightAware Approximate
09:19PM 41.1914 -96.5070 256° West  Level FlightAware Approximate
09:20PM 41.1864 -96.5340 256° West  Level FlightAware Approximate
09:21PM 41.1814 -96.5610 257° West  Level FlightAware Approximate
09:22PM 41.1766 -96.5881 257° West  Level FlightAware Approximate
09:23PM 41.1718 -96.6152 257° West  Level FlightAware Approximate
09:24PM 41.1670 -96.6423 257° West  Level FlightAware Approximate
09:25PM 41.1623 -96.6694 257° West  Level FlightAware Approximate
09:25PM 41.2630 -95.8950 184° South 86 99  Level FlightAware
09:26PM 41.2580 -95.8980 204° Southwest 91 105 263 Level FlightAware
09:26PM 41.2490 -95.9090 223° Southwest 102 117 266 Level FlightAware
09:26PM 41.2480 -95.9160 259° West 114 131 272 Level FlightAware
09:27PM 41.2480 -95.9350 270° West 108 124 274 Level FlightAware
09:27PM 41.2460 -95.9530 262° West 104 120 280 Level FlightAware
09:27PM 41.2440 -95.9600 249° West 104 120 286 Level FlightAware
09:28PM 41.2400 -95.9780 254° West 101 116 289 Level FlightAware
09:28PM 41.2360 -95.9950 253° West 98 113 296 Level FlightAware
09:29PM 41.2320 -96.0130 254° West 99 114 303 Level FlightAware
09:29PM 41.2310 -96.0210 261° West 105 121 311 Level FlightAware
09:30PM 41.2280 -96.0380 257° West 128 147 315 Level FlightAware
09:30PM 41.2250 -96.0590 259° West 134 154 321 Level FlightAware
09:30PM 41.2230 -96.0810 263° West 133 153 330 Level FlightAware
09:31PM 41.2210 -96.0980 261° West 134 154 337 Level FlightAware
09:31PM 41.2180 -96.1190 259° West 135 155 344 Level FlightAware
09:32PM 41.2140 -96.1450 258° West 135 155 353 Level FlightAware
09:32PM 41.2110 -96.1640 258° West 134 154 364 Level FlightAware
09:33PM 41.2080 -96.1870 260° West 134 154 373 Level FlightAware
09:33PM 41.2060 -96.1950 252° West 135 155 385 Level FlightAware
09:33PM 41.2020 -96.2230 259° West 134 154 389 Level FlightAware
09:34PM 41.1990 -96.2460 260° West 134 154 404 Level FlightAware
09:34PM 41.1970 -96.2560 255° West 134 154 417 Level FlightAware
09:34PM 41.1940 -96.2780 260° West 135 155 423 Level FlightAware
09:35PM 41.1920 -96.2870 254° West 135 155 437 Level FlightAware
09:35PM 41.1900 -96.2990 258° West 135 155 443 Level FlightAware
09:35PM 41.1860 -96.3260 259° West 136 157 451 Level FlightAware
09:36PM 41.1830 -96.3440 258° West 137 158 471 Level FlightAware
09:36PM 41.1810 -96.3590 260° West 138 159 484 Level FlightAware
09:37PM 41.1780 -96.3820 260° West 136 157 496 Level FlightAware
09:37PM 41.1760 -96.3910 254° West 136 157 516 Level FlightAware
09:37PM 41.1720 -96.4200 260° West 137 158 525 Level FlightAware
09:38PM 41.1690 -96.4410 259° West 136 157 552 Level FlightAware
09:38PM 41.1670 -96.4510 255° West 135 155 576 Level FlightAware
09:38PM 41.1640 -96.4720 259° West 135 155 587 Level FlightAware
09:39PM 41.1600 -96.4960 258° West 135 155 612 Level FlightAware
09:39PM 41.1580 -96.5080 258° West 135 155 645 Level FlightAware
09:40PM 41.1540 -96.5300 256° West 136 157 662 Level FlightAware
09:40PM 41.1520 -96.5430 258° West 135 155 699 Level FlightAware
09:40PM 41.1490 -96.5660 260° West 135 155 720 Level FlightAware
09:41PM 41.1450 -96.5890 257° West 135 155 763 Level FlightAware
09:41PM 41.1420 -96.6120 260° West 134 154 813 Level FlightAware
09:42PM 41.1390 -96.6280 256° West 136 157 865 Level FlightAware
09:42PM 41.1350 -96.6530 258° West 136 157 911 Level FlightAware
09:43PM 41.1310 -96.6780 258° West 133 153 989 Level FlightAware
09:43PM 41.1280 -96.6990 259° West 133 153 1,078 Level FlightAware
09:44PM 41.1240 -96.7230 258° West 134 154 1,169 Level FlightAware
09:44PM 41.1200 -96.7460 257° West 133 153 1,295 Level FlightAware
09:45PM 41.1160 -96.7680 256° West 135 155 1,446 Level FlightAware
09:45PM 41.1150 -96.7780 262° West 135 155 1,629 Level FlightAware
09:45PM 41.1110 -96.7980 255° West 135 155 1,722 Level FlightAware
09:46PM 41.1070 -96.8250 259° West 134 154 1,957 Level FlightAware
09:46PM 41.1040 -96.8450 259° West 134 154 2,384 Level FlightAware
09:47PM 41.1010 -96.8630 258° West 134 154 2,857 Level FlightAware
09:47PM 41.0950 -96.9020 258° West 137 158 3,600 Level FlightAware
09:48PM 41.0878 -96.9419 258° West 137 158 6,000 3,186 Climbing Minneapolis Center
09:49PM 41.0778 -96.9903 255° West 137 158 6,000  Level Minneapolis Center
09:50PM 41.0694 -97.0414 258° West 140 161 6,000  Level Minneapolis Center
09:51PM 41.0589 -97.0917 254° West 141 162 6,000  Level Minneapolis Center
09:52PM 41.0514 -97.1428 259° West 137 158 6,000  Level Minneapolis Center
09:53PM 41.0439 -97.1922 259° West 136 157 6,000  Level Minneapolis Center
09:54PM 41.0336 -97.2494 257° West 135 155 6,000  Level Minneapolis Center
09:55PM 41.0267 -97.2978 259° West 135 155 6,000  Level Minneapolis Center
09:56PM 41.0167 -97.3461 255° West 134 154 6,000  Level Minneapolis Center
09:57PM 41.0128 -97.3917 264° West 131 151 6,000  Level Minneapolis Center
09:58PM 41.0039 -97.4372 256° West 128 147 6,000  Level Minneapolis Center
09:59PM 40.9944 -97.4839 255° West 129 148 6,000  Level Minneapolis Center
10:01PM 40.9875 -97.5311 259° West 130 150 6,000  Level Minneapolis Center
10:02PM 40.9792 -97.5786 257° West 131 151 6,000  Level Minneapolis Center
10:03PM 40.9703 -97.6336 258° West 130 150 6,000  Level Minneapolis Center
10:04PM 40.9619 -97.6789 256° West 128 147 6,000  Level Minneapolis Center
10:05PM 40.9533 -97.7350 259° West 129 148 6,000  Level Minneapolis Center
10:06PM 40.9447 -97.7833 257° West 131 151 6,000  Level Minneapolis Center
10:07PM 40.9364 -97.8289 256° West 130 150 6,000  Level Minneapolis Center
10:08PM 40.9281 -97.8772 257° West 131 151 6,000  Level Minneapolis Center
10:09PM 40.9203 -97.9244 258° West 132 152 6,000  Level Minneapolis Center
10:10PM 40.9122 -97.9750 258° West 135 155 6,000  Level Minneapolis Center
10:11PM 40.9033 -98.0214 256° West 134 154 6,000  Level Minneapolis Center
10:12PM 40.8950 -98.0692 257° West 133 153 6,000  Level Minneapolis Center
10:13PM 40.8867 -98.1181 257° West 134 154 6,000  Level Minneapolis Center
10:14PM 40.8781 -98.1661 257° West 134 154 6,000  Level Minneapolis Center
10:15PM 40.8681 -98.2250 257° West 136 157 6,000  Level Minneapolis Center
10:16PM 40.8594 -98.2731 257° West 135 155 6,000  Level Minneapolis Center
10:17PM 40.8514 -98.3222 258° West 136 157 6,000  Level Minneapolis Center
10:18PM 40.8425 -98.3714 257° West 137 158 6,000  Level Minneapolis Center
10:19PM 40.8331 -98.4186 255° West 135 155 6,000  Level Minneapolis Center
10:20PM 40.8244 -98.4669 257° West 135 155 6,000  Level Minneapolis Center
10:21PM 40.8153 -98.5161 256° West 136 157 6,000 -98 Level Minneapolis Center
10:22PM 40.8058 -98.5644 256° West 136 157 5,800 -244 Descending Minneapolis Center
10:23PM 40.7975 -98.6169 258° West 140 161 5,500 -293 Descending Minneapolis Center
10:24PM 40.7878 -98.6711 257° West 145 167 5,200 -293 Descending Minneapolis Center
10:25PM 40.7789 -98.7239 257° West 147 169 4,900 -290 Descending Minneapolis Center
10:27PM 40.7625 -98.7795 259° West  Level FlightAware Approximate
10:34PM 40.7167 -99.0000 270° West  Level FlightAware Approximate
10:35PM 40.7270 -99.0068 270° West  Level Estimated
10:36PM 40.7270 -99.0068 270° West  Level Estimated

Login

Don't have an account? Register now (free) for customized features, flight alerts, and more!